Find Resurs-P No. 5

NORAD ID: 62430 Int'l Des: 2024-250 Owner: TSSKBP Country: RU operational
LEOCIRCULARRETROGRADESSO

Current View

Loading 3D Globe...

About Resurs-P No. 5

Description loading...

Upcoming Passes

Passes for default location (London). Set your location on the main map for personalized predictions.

Altitude History

Loading altitude history...

Two-Line Element Set

1 62430U 24250A 26150.14190964 .00004033 00000-0 13311-3 0 9998
2 62430 97.2796 75.7850 0000767 76.7403 283.3924 15.31978070 79789
Epoch: May 30, 2026 • Age: 9 hours

Current Status

Altitude 472.2 km
Velocity 7.63 km/s
Sub-Earth Point 6.05°N, 5.22°W
Launch Date Dec 25, 2024
Age 1.4 years
Type other

Technical Details

Classification Payload
Mass 6000.00 kg
Dry Mass 5800.00 kg
Total Mass 6000.00 kg
Length 7.90 m
Diameter 2.70 m
Span 13.00 m
Shape Cy+2 pan
Manufacturer TSSKBP
Bus Type Resurs P
Phase Status In Orbit
Owner/State TSSKBP/RU

Most Searched